Rafha, Saudi Arabia

2:06 AM +03 on July 27, 2017 (GMT +0300)
Rafha

Weather History for OERF - November, 2012

Change the Weather History Date:

Monday, November 26, 2012

  Actual Average Record
Temperature  
Mean Temperature 57 °F -  
Max Temperature 66 °F 64 °F 82 °F (1998)
Min Temperature 48 °F 44 °F 37 °F (2016)
Degree Days  
Heating Degree Days 8    
Growing Degree Days 7 (Base 50)    
Moisture  
Dew Point 53 °F    
Average Humidity 87    
Maximum Humidity 100    
Minimum Humidity 60    
Precipitation  
Precipitation 0.00 in - - ()
Sea Level Pressure  
Sea Level Pressure 29.98 in    
Wind  
Wind Speed 5 mph ()    
Max Wind Speed 24 mph    
Max Gust Speed -    
Visibility 3.2 miles    
Events Fog    
Averages and records for this station are not official NWS values.
T = Trace of Precipitation, MM = Missing Value Source: Averaged Metar Reports

Daily Weather History Graph

Daily Weather History Graph

Search for Another Location

Airport or City:

Trip Planner

Search our weather history database for the weather conditions in past years. The results will help you decide how hot, cold, wet, or windy it might be!

Date:

Astronomy

Nov. 26, 2012 Rise Set
Actual Time 6:39 AM +03 5:07 PM +03
Civil Twilight 6:13 AM +03 5:32 PM +03
Nautical Twilight 5:44 AM +03 6:02 PM +03
Astronomical Twilight 5:15 AM +03 6:30 PM +03
Moon 3:41 PM +03 4:35 AM +03
Length of Visible Light 11h 18m
Length of Day
10h 27m
Waxing Gibbous, 96% of the Moon is Illuminated
Nov 26
Waxing Gibbous
Nov 28
Full
Dec 6
Last Quarter
Dec 13
New
Dec 20
First Quarter

Hourly Weather History & Observations

Time (+03) Temp. Dew Point Humidity Pressure Visibility Wind Dir Wind Speed Gust Speed Precip Events Conditions
12:00 AM 56 °F 55 °F 97% 29.91 in 3 mi SSE 6.9 mph - -   Mist
12:00 AM 55.4 °F 55.4 °F 100% 29.92 in 3.1 mi SSE 6.9 mph - N/A   Scattered Clouds
1:00 AM 53.6 °F 53.6 °F 100% 29.95 in 3.1 mi SSE 2.3 mph - N/A   Scattered Clouds
2:00 AM 53.6 °F 53.6 °F 100% 29.98 in 2.5 mi Calm Calm - N/A   Scattered Clouds
3:00 AM 52 °F 52 °F 99% 29.96 in 2 mi Calm Calm - -   Mist
3:00 AM 51.8 °F 51.8 °F 100% 29.98 in 1.9 mi Calm Calm - N/A   Scattered Clouds
4:00 AM 51.8 °F 51.8 °F 100% 29.92 in 2.5 mi Calm Calm - N/A   Clear
5:00 AM 51.8 °F 51.8 °F 100% 29.95 in 2.5 mi North 2.3 mph - N/A   Clear
6:00 AM 51 °F 50 °F 95% 29.94 in 2 mi North 2.3 mph - -   Mist
6:00 AM 50.0 °F 50.0 °F 100% 29.95 in 1.9 mi North 2.3 mph - N/A   Clear
7:00 AM 50.0 °F 48.2 °F 94% 29.95 in 0.1 mi West 1.2 mph - N/A Fog Fog
8:00 AM 48.2 °F 48.2 °F 100% 29.98 in 0.1 mi NNW 3.5 mph - N/A Fog Fog
9:00 AM 53 °F 52 °F 94% 29.99 in 4 mi NNW 3.5 mph - -   Mist
9:00 AM 53.6 °F 51.8 °F 94% 30.01 in 3.7 mi NNW 3.5 mph - N/A   Clear
10:00 AM 57.2 °F 55.4 °F 94% 30.01 in 3.7 mi SW 4.6 mph - N/A   Clear
11:00 AM 60.8 °F 55.4 °F 82% 30.01 in 5.0 mi NNW 4.6 mph - N/A   Clear
12:00 PM 64 °F 57 °F 72% 29.97 in 5 mi NNW 6.9 mph - -   Mist
12:00 PM 64.4 °F 57.2 °F 77% 29.98 in 5.0 mi NNW 6.9 mph - N/A   Clear
1:00 PM 66.2 °F 57.2 °F 73% 29.98 in 6.2 mi NW 10.4 mph - N/A   Scattered Clouds
2:00 PM 64.4 °F 55.4 °F 73% 29.95 in 2.5 mi NNW 24.2 mph - N/A   Widespread Dust
3:00 PM 64 °F 54 °F 60% 29.94 in 2 mi NNW 21.9 mph - -   Blowing Sand
3:00 PM 64.4 °F 53.6 °F 68% 29.95 in 2.5 mi NNW 21.9 mph - N/A   Widespread Dust
4:00 PM 62.6 °F 53.6 °F 72% 29.95 in - North 16.1 mph - N/A   Clear
5:00 PM 62.6 °F 51.8 °F 68% 29.98 in - North 11.5 mph - N/A   Clear
6:00 PM 59 °F 50 °F 64% 29.99 in 6 mi North 5.8 mph - -  
6:00 PM 59.0 °F 50.0 °F 72% 29.98 in - North 5.8 mph - N/A   Clear
7:00 PM 57.2 °F 50.0 °F 77% 30.01 in - NNW 4.6 mph - N/A   Clear
8:00 PM 55.4 °F 50.0 °F 82% 30.01 in - North 4.6 mph - N/A   Clear
9:00 PM 55 °F 52 °F 85% 30.04 in 6 mi NNW 4.6 mph - -  
9:00 PM 55.4 °F 51.8 °F 88% 30.04 in - NNW 4.6 mph - N/A   Clear
10:00 PM 53.6 °F 51.8 °F 94% 30.04 in - NW 3.5 mph - N/A   Clear
11:00 PM 51.8 °F 50.0 °F 94% 30.06 in - NW 3.5 mph - N/A   Clear